Погода в Пезаро

Италия     43°54′45″N   12°54′19″E
темп.,
°C
ветер,
м/с
пор.,
м/с
влажн.,
%
обл.,
%
осадки,
мм/ч
давл.,
гПа
погр.,
м
12 апреля, пн
пн1223:00+13ююв4583100 0.0 101969
02:00+13ююз2290100 0.7 101939
05:00+13ююв5688100 0.3 1018156
08:00+13юв71088100 0.3 1017186
11:00+13юв6887100 0.4 1017160
14:00+14юв3379100 0.4 101641
17:00+14юв6782100 0.0 101598
20:00+13юв6992100 0.4 1014179
13 апреля, вт
вт1323:00+12ююв6794100 4.9 1015359
02:00+12ю3394100 6.3 1014179
05:00+10зсз111290100 1.0 1014543
08:00+10сз8888100 1.4 1016635
11:00+9ссз6788100 2.2 1018745
14:00+9св121174100 2.8 10191230
17:00+9ссв111370100 0.3 10201485
20:00+9ссв14147198 0.4 10221352
14 апреля, ср
ср1423:00+10св121562100 0.1 10231771
02:00+10ссв676594 0.3 10231408
05:00+10всв775926 0.1 10231226
08:00+10ссв446420 0.2 10241057
11:00+9ссв126538 0.3 1024804
14:00+10всв44525 0.3 1024993
17:00+10всв44494 0.0 1022883
20:00+11в45540 0.0 1022796
15 апреля, чт
чт1523:00+11вюв34545 0.0 1022964
02:00+11в34545 0.0 10211114
05:00+8ю346550 0.0 1021276
08:00+8ююв336460 0.0 1021263
11:00+9вюв246022 0.0 1021482
14:00+11всв44535 0.0 10211012
17:00+11в43540 0.0 1019941
20:00+11юв33505 0.0 1019788
16 апреля, пт
пт1623:00+11юв23515 0.0 1020534
02:00+10ююз11535 0.0 1019316
05:00+9юз11595 0.0 1019264
08:00+8зюз21635 0.0 1019170
11:00+9с226675 0.0 1019240
14:00+11в4455100 0.0 1018694
17:00+12в6656100 0.0 1016949
20:00+12в5653100 0.0 1016749